Regional Weather Roundup
Issued by NWS Kansas City/Pleasant Hill, MO

Home | Current Version | Previous Version | Text Only | Print | Product List | Glossary On
Versions: 1 2 3 4 5 6 7 8 9 10 11 12 13 14 15 16 17 18 19 20 21 22 23 24 25 26 27
000
ASUS43 KEAX 260610
RWREAX

WEATHER ROUNDUP FOR EASTERN KANSAS AND NORTHWEST MISSOURI
NATIONAL WEATHER SERVICE KANSAS CITY/PLEASANT HILL MO
100 AM CDT THU MAY 26 2016

KSZ040-057-103>105-MOZ028-029-037-043-260700-
...KANSAS CITY METROPOLITAN AREA...

CITY           SKY/WX    TMP DP  RH WIND       PRES   REMARKS
K.C. INTL      LGT RAIN  76  70  82 S24       29.84F
6HR MIN TEMP:  73; 6HR MAX TEMP:  80; 6HR PCP: TRACE;

K.C. DOWNTOWN  CLOUDY    78  70  76 S13       29.87R THUNDER
6HR MIN TEMP:  78; 6HR MAX TEMP:  82;

LEES SUMMIT    CLOUDY    75  69  81 S16       29.88F
6HR MIN TEMP:  75; 6HR MAX TEMP:  81;

OLATHE - IXD   TSTM      69  61  75 NW10G20   29.90R
6HR MIN TEMP:  69; 6HR MAX TEMP:  80; 6HR PCP:  0.03;

OLATHE - OJC   TSTM      72  61  68 W9        29.94R
6HR MIN TEMP:  73; 6HR MAX TEMP:  78;

LAWRENCE       CLOUDY    71  60  68 SW24G35   29.85R THUNDER

$$

MOZ001>008-011>017-020>025-030>033-038>040-044>046-053-054-260700-
...NORTHERN AND CENTRAL MISSOURI...

CITY           SKY/WX    TMP DP  RH WIND       PRES   REMARKS
ST. JOSEPH     TSTM      70  62  76 E13       29.85F
6HR MIN TEMP:  68; 6HR MAX TEMP:  81; 6HR PCP:  0.04;

MOSBY          CLOUDY    77  68  73 S9G17     29.86F
WARRENSBURG    CLOUDY    72  66  83 SE10      29.88F
WHITEMAN AFB   PTCLDY    73  71  93 S16       29.89F
6HR MIN TEMP:  72; 6HR MAX TEMP:  82; 6HR PCP: TRACE;

CLINTON        MOCLDY    72  68  88 S12       29.91S
SEDALIA        CLOUDY    73  66  78 S17       29.92F
6HR MIN TEMP:  73; 6HR MAX TEMP:  81;

WARSAW         NOT AVBL
CHILLICOTHE      N/A     76  67  73 S6        29.88S
6HR MIN TEMP:  75; 6HR MAX TEMP:  82;

KIRKSVILLE     MOCLDY    70  64  81 S8        29.90S
6HR MIN TEMP:  68; 6HR MAX TEMP:  81;


$$

MOZ041-047>049-056>058-063>065-088>090-097-260700-
...EASTERN AND SOUTHERN MISSOURI...

CITY           SKY/WX    TMP DP  RH WIND       PRES   REMARKS
ST. LOUIS INTL CLEAR     73  65  75 S9        29.97S
6HR MIN TEMP:  73; 6HR MAX TEMP:  82;

SPIRIT OF STL  CLEAR     70  66  87 SW3       29.95F
COLUMBIA       CLOUDY    71  66  84 S12       29.93S
JEFFERSON CITY PTCLDY    73  66  78 SE6       29.93S
ROLLA          CLOUDY    72  68  87 S13       29.96F
SPRINGFIELD    CLOUDY    72  68  87 SE14      29.96F
JOPLIN         CLOUDY    76  71  85 S12       29.92F
WEST PLAINS    PTCLDY    69  66  90 SE3       30.04S

$$

IAZ060-094-KSZ022-034>040-054-083-096-NEZ052-066-093-260700-
...KANSAS...SOUTHEAST NEBRASKA AND IOWA...

CITY           SKY/WX    TMP DP  RH WIND       PRES   REMARKS
TOPEKA         CLOUDY    68  59  73 S3        29.83S
6HR MIN TEMP:  67; 6HR MAX TEMP:  80; 6HR PCP:  0.25;

MANHATTAN      CLEAR     66  59  78 S5        29.84R
EMPORIA        CLOUDY    74  70  87 NE5       29.86R
CHANUTE        CLOUDY    77  72  84 S14       29.88S
WICHITA        PTCLDY    76  72  87 S9        29.84R
OMAHA          CLOUDY    71  66  84 CALM      29.82F THUNDER
LINCOLN        CLOUDY    65  56  72 NW7       29.89R THUNDER
FALLS CITY     CLOUDY    65  62  90 E7        29.83R
LAMONI         TSTM      70  66  87 S8        29.87F
DES MOINES     CLOUDY    72  64  76 S6        29.85F

$$





USA.gov is the U.S. government's official web portal to all federal, state and local government web resources and services.